Location: Barrio de Canyet
(41.4665°N, 2.2381°E)
Time: 20:20:07
(UTC+00:00)

Cosmos 1833 Rocket - Pass Details

Date: 09 April 2020
Orbit: 834 x 838 km, 71.0° (Epoch: 31 May)

Event Time Altitude Azimuth Distance (km) Brightness Sun altitude
Exits shadow 20:39:36 19° 56° (NE) 1,879 4.3 -23.7°
Drops below altitude 10° 20:41:29 10° 43° (NE) 2,456 5.0 -24.0°
Sets 20:44:09 0° 34° (NNE) 3,395 5.9 -24.4°
